Data for 11/14/2016

Time Sea-Level Adjusted Pressure Absolute Pressure Temperature Relative Humidity Dew Point   
(mb) (inHg) (mb) (inHg) (C) (F) (%) (C) (F)
00:05 1020 30.12 849 25.07 12.2 54 37 -2 28.3
00:10 1020 30.12 849 25.07 12.3 54.1 37 -1.9 28.5
00:15 1020 30.12 849 25.07 12.2 53.9 38 -1.8 28.7
00:20 1020 30.12 849 25.07 12.1 53.8 38 -1.9 28.6
00:25 1020 30.12 849 25.07 12.1 53.7 38 -1.9 28.6
00:30 1020 30.12 849 25.07 12 53.6 39 -1.6 29.1
00:35 1020 30.12 849 25.07 11.9 53.4 38 -2 28.4
00:40 1020 30.12 849 25.07 12.1 53.7 38 -1.9 28.5
00:45 1020 30.12 849 25.07 12.1 53.7 38 -1.9 28.5
00:50 1020 30.12 849 25.07 12 53.7 38 -1.8 28.7
00:55 1020 30.12 849 25.07 11.9 53.4 38 -1.8 28.7
01:00 1020 30.12 849 25.07 11.8 53.2 39 -1.8 28.7
01:05 1020 30.12 849 25.07 11.6 52.9 39 -1.8 28.8
01:10 1020 30.12 849 25.07 11.3 52.4 40 -1.6 29.1
01:15 1020 30.12 849 25.07 11 51.8 41 -1.8 28.8
01:20 1020 30.12 849 25.07 10.9 51.5 41 -1.8 28.8
01:25 1020 30.12 849 25.07 10.7 51.2 41 -1.9 28.7
01:30 1020 30.12 849 25.07 10.5 51 41 -2 28.5
01:35 1020 30.12 849 25.07 10.5 50.9 42 -1.9 28.5
01:40 1020 30.12 849 25.07 10.5 50.8 41 -2.2 28.1
01:45 1020 30.12 849 25.07 10.6 51 41 -2.2 28.1
01:50 1020 30.12 849 25.07 10.6 51.1 41 -2.1 28.3
01:55 1020 30.12 849 25.07 10.5 51 41 -2.2 28.1
02:00 1020 30.12 849 25.07 10.5 50.9 41 -2.3 27.9
02:05 1020 30.12 849 25.07 10.6 51.1 40 -2.3 27.9
02:10 1020 30.12 849 25.07 10.6 51.1 40 -2.4 27.8
02:15 1020 30.12 849 25.07 10.6 51.1 40 -2.3 27.8
02:20 1020 30.12 849 25.07 10.7 51.2 40 -2.4 27.7
02:25 1020 30.12 849 25.07 10.9 51.6 39 -2.5 27.5
02:30 1019 30.09 849 25.07 10.8 51.4 39 -2.4 27.6
02:35 1019 30.09 849 25.07 10.7 51.3 40 -2.1 28.1
02:40 1019 30.09 849 25.07 10.4 50.7 40 -2.4 27.7
02:45 1019 30.09 849 25.07 10.7 51.2 38 -3 26.6
02:50 1019 30.09 849 25.07 11.2 52.2 37 -2.9 26.8
02:55 1020 30.12 849 25.07 11.2 52.1 38 -2.6 27.4
03:00 1020 30.12 849 25.07 11.1 52 37 -2.9 26.7
03:05 1020 30.12 849 25.07 11.3 52.3 36 -3.1 26.5
03:10 1020 30.12 849 25.07 11.4 52.6 36 -3 26.5
03:15 1020 30.12 849 25.07 11.4 52.5 35 -3.3 26
03:20 1020 30.12 849 25.07 11.4 52.5 36 -3.1 26.4
03:25 1020 30.12 849 25.07 11.2 52.1 37 -3.1 26.5
03:30 1020 30.12 849 25.07 11.2 52.1 36 -3.2 26.3
03:35 1020 30.12 849 25.07 11.2 52.1 36 -3.4 26
03:40 1020 30.12 849 25.07 11.4 52.4 35 -3.4 25.9
03:45 1020 30.12 849 25.07 11.4 52.6 35 -3.5 25.7
03:50 1020 30.12 849 25.07 11.4 52.5 35 -3.3 26
03:55 1020 30.12 849 25.07 11.4 52.6 35 -3.4 25.9
04:00 1020 30.12 849 25.07 11.6 52.8 35 -3.2 26.2
04:05 1020 30.12 849 25.07 11.5 52.7 35 -3.5 25.8
04:10 1020 30.12 849 25.07 11.5 52.7 36 -3.2 26.3
04:15 1020 30.12 849 25.07 11.5 52.6 36 -3.2 26.3
04:20 1020 30.12 849 25.07 11.4 52.5 36 -3.3 26.1
04:25 1020 30.12 849 25.07 11.4 52.4 36 -3.2 26.2
04:30 1020 30.12 849 25.07 11.3 52.3 36 -3.1 26.4
04:35 1020 30.12 849 25.07 11.1 52 36 -3.4 25.8
04:40 1020 30.12 849 25.07 11.3 52.4 33 -4.2 24.5
04:45 1020 30.12 849 25.07 11.5 52.8 34 -3.7 25.3
04:50 1020 30.12 849 25.07 11.3 52.4 34 -3.9 25
04:55 1020 30.12 849 25.07 11.3 52.3 34 -4.1 24.6
05:00 1019 30.09 849 25.07 11.4 52.5 33 -4.2 24.4
05:05 1019 30.09 849 25.07 11.2 52.1 34 -4.2 24.5
05:10 1019 30.09 849 25.07 11.1 52 35 -3.7 25.4
05:15 1019 30.09 849 25.07 10.7 51.2 37 -3.4 25.8
05:20 1019 30.09 849 25.07 10.2 50.4 38 -3.5 25.7
05:25 1019 30.09 849 25.07 10 50 39 -3.4 25.8
05:30 1019 30.09 849 25.07 9.8 49.6 39 -3.5 25.7
05:35 1019 30.09 849 25.07 9.8 49.6 39 -3.6 25.4
05:40 1020 30.12 849 25.07 9.8 49.7 38 -3.7 25.3
05:45 1020 30.12 849 25.07 9.8 49.7 38 -3.8 25.2
05:50 1020 30.12 849 25.07 9.9 49.8 38 -3.8 25.2
05:55 1020 30.12 849 25.07 10 50.1 38 -3.7 25.3
06:00 1020 30.12 849 25.07 10.3 50.5 37 -3.9 25.1
06:05 1020 30.12 849 25.07 10.4 50.7 37 -3.5 25.8
06:10 1020 30.12 849 25.07 9.6 49.2 42 -2.7 27.1
06:15 1020 30.12 849 25.07 8.6 47.6 43 -3.3 26
06:20 1020 30.12 849 25.07 8.7 47.6 42 -3.5 25.7
06:25 1020 30.12 849 25.07 8.9 48 40 -4 24.8
06:30 1020 30.12 849 25.07 9.6 49.2 39 -3.6 25.6
06:35 1020 30.12 849 25.07 9.9 49.8 39 -3.5 25.7
06:40 1020 30.12 849 25.07 10 50 38 -3.5 25.8
06:45 1020 30.12 849 25.07 10.2 50.3 38 -3.4 25.8
06:50 1019 30.09 849 25.07 10.2 50.4 38 -3.3 26
06:55 1019 30.09 849 25.07 10.3 50.5 37 -3.7 25.3
07:00 1019 30.09 848 25.04 10.3 50.6 38 -3.4 25.8
07:05 1019 30.09 848 25.04 10.3 50.5 38 -3.3 26
07:10 1019 30.09 849 25.07 10 50 42 -2.3 27.8
07:15 1020 30.12 849 25.07 9.2 48.6 40 -3.5 25.6
07:20 1020 30.12 849 25.07 9.7 49.4 39 -3.5 25.7
07:25 1020 30.12 849 25.07 9.9 49.9 39 -3.5 25.8
07:30 1020 30.12 849 25.07 10.4 50.7 38 -3.1 26.4
07:35 1019 30.09 849 25.07 10.7 51.2 37 -3.6 25.6
07:40 1019 30.09 849 25.07 10.8 51.4 37 -3.3 26.1
07:45 1019 30.09 849 25.07 10.6 51.1 37 -3.3 26
07:50 1019 30.09 849 25.07 10.5 50.9 37 -3.4 25.9
07:55 1019 30.09 849 25.07 10.5 51 39 -2.7 27.1
08:00 1019 30.09 849 25.07 10.5 51 39 -2.9 26.8
08:05 1019 30.09 849 25.07 10.3 50.5 40 -2.6 27.3
08:10 1020 30.12 849 25.07 10 50 40 -2.9 26.8
08:15 1020 30.12 849 25.07 10 49.9 40 -3 26.6
08:20 1020 30.12 849 25.07 9.9 49.9 40 -3 26.6
08:25 1020 30.12 849 25.07 9.9 49.8 41 -2.8 26.9
08:30 1020 30.12 849 25.07 9.8 49.6 41 -2.7 27.2
08:35 1020 30.12 849 25.07 9.7 49.4 42 -2.7 27.2
08:40 1020 30.12 849 25.07 9.7 49.5 42 -2.7 27.2
08:45 1020 30.12 849 25.07 10.4 50.7 38 -3.2 26.2
08:50 1020 30.12 849 25.07 11.5 52.8 37 -2.7 27.1
08:55 1020 30.12 849 25.07 11.8 53.3 36 -2.7 27.2
09:00 1020 30.12 849 25.07 11.9 53.4 37 -2.4 27.6
09:05 1020 30.12 849 25.07 11.8 53.2 38 -2.1 28.3
09:10 1020 30.12 849 25.07 10.8 51.5 39 -2.4 27.8
09:15 1020 30.12 849 25.07 10.5 50.9 40 -2.6 27.3
09:20 1020 30.12 849 25.07 10.7 51.3 40 -2.4 27.7
09:25 1020 30.12 849 25.07 10.8 51.4 40 -2.2 28.1
09:30 1020 30.12 849 25.07 10.8 51.4 42 -1.7 28.9
09:35 1019 30.09 849 25.07 10.6 51.1 41 -2.1 28.2
09:40 1019 30.09 849 25.07 10.8 51.5 40 -2.1 28.1
09:45 1019 30.09 848 25.04 11.4 52.5 38 -2.4 27.7
09:50 1019 30.09 848 25.04 12.2 54 35 -2.8 26.9
09:55 1019 30.09 848 25.04 12.8 55.1 34 -2.6 27.3
10:00 1019 30.09 848 25.04 12.9 55.2 35 -2.1 28.2
10:05 1018 30.06 848 25.04 13 55.3 35 -2.2 28.1
10:10 1018 30.06 847 25.01 13.1 55.5 34 -2.3 27.8
10:15 1018 30.06 847 25.01 13.3 55.9 34 -2.3 27.8
10:20 1018 30.06 847 25.01 13.4 56.2 34 -2.2 28
10:25 1018 30.06 848 25.04 13.6 56.5 33 -2.1 28.2
10:30 1018 30.06 848 25.04 13.7 56.7 34 -1.9 28.5
10:35 1018 30.06 847 25.01 13.7 56.7 33 -2 28.4
10:40 1018 30.06 848 25.04 13.8 56.8 33 -2.2 28.1
10:45 1019 30.09 848 25.04 14.3 57.8 33 -1.7 28.9
10:50 1019 30.09 848 25.04 14.3 57.8 33 -1.8 28.7
10:55 1019 30.09 848 25.04 14.8 58.7 32 -1.6 29.2
11:00 1018 30.06 848 25.04 14.9 58.7 32 -1.8 28.8
11:05 1018 30.06 848 25.04 14.8 58.7 31 -2 28.3
11:10 1018 30.06 848 25.04 14.9 58.8 30 -2.6 27.3
11:15 1018 30.06 848 25.04 15.2 59.3 29 -2.5 27.4
11:20 1018 30.06 848 25.04 15.5 59.9 28 -2.7 27.2
11:25 1018 30.06 848 25.04 15.9 60.6 27 -2.8 27
11:30 1018 30.06 848 25.04 16.2 61.1 28 -2.1 28.3
11:35 1019 30.09 848 25.04 16.8 62.2 26 -2.6 27.4
11:40 1019 30.09 848 25.04 16.5 61.7 27 -2.7 27.1
11:45 1019 30.09 848 25.04 16.6 61.9 27 -2.5 27.5
11:50 1019 30.09 848 25.04 16.8 62.2 26 -2.9 26.7
11:55 1018 30.06 848 25.04 16.8 62.2 26 -2.8 27
12:00 1019 30.09 848 25.04 17 62.5 26 -2.3 27.8
12:05 1019 30.09 848 25.04 17.1 62.8 26 -2.3 27.9
12:10 1019 30.09 848 25.04 17 62.7 28 -1.7 29
12:15 1018 30.06 848 25.04 16.2 61.2 29 -1.9 28.6
12:20 1018 30.06 848 25.04 15.7 60.2 29 -2.4 27.7
12:25 1018 30.06 847 25.01 15.5 59.9 29 -2.5 27.5
12:30 1018 30.06 847 25.01 15.2 59.3 29 -2.5 27.5
12:35 1018 30.06 848 25.04 15.2 59.3 30 -2.3 27.8
12:40 1019 30.09 848 25.04 15.3 59.6 31 -1.6 29.1
12:45 1019 30.09 848 25.04 15.3 59.5 30 -2.1 28.3
12:50 1018 30.06 848 25.04 15.3 59.6 30 -2.2 28
12:55 1018 30.06 848 25.04 15.4 59.7 29 -2.3 27.8
13:00 1018 30.06 847 25.01 15.5 59.8 29 -2.6 27.3
13:05 1018 30.06 847 25.01 15.5 59.8 29 -2.4 27.7
13:10 1018 30.06 847 25.01 15.3 59.5 31 -1.9 28.6
13:15 1018 30.06 847 25.01 15.3 59.5 30 -2 28.3
13:20 1018 30.06 847 25.01 15.4 59.7 28 -2.9 26.8
13:25 1018 30.06 847 25.01 15.5 60 28 -2.6 27.2
13:30 1018 30.06 847 25.01 15.7 60.2 29 -2.4 27.6
13:35 1018 30.06 847 25.01 15.6 60.1 28 -2.9 26.8
13:40 1017 30.03 847 25.01 15.6 60.1 29 -2.4 27.8
13:45 1017 30.03 847 25.01 15.4 59.8 30 -1.9 28.6
13:50 1017 30.03 847 25.01 15.3 59.5 30 -2.1 28.3
13:55 1017 30.03 847 25.01 15.4 59.6 28 -3 26.6
14:00 1017 30.03 847 25.01 15.5 59.9 29 -2.2 28
14:05 1017 30.03 847 25.01 15.6 60 29 -2.3 27.8
14:10 1017 30.03 847 25.01 15.6 60.1 28 -2.8 26.9
14:15 1017 30.03 847 25.01 15.6 60.2 28 -2.6 27.3
14:20 1017 30.03 847 25.01 15.4 59.8 30 -2 28.3
14:25 1017 30.03 847 25.01 15.3 59.5 30 -2.2 28.1
14:30 1017 30.03 847 25.01 15.2 59.3 31 -1.7 28.9
14:35 1017 30.03 847 25.01 15.1 59.1 32 -1.4 29.5
14:40 1017 30.03 847 25.01 15 59.1 32 -1.3 29.6
14:45 1017 30.03 846 24.98 15 59 33 -1.1 30
14:50 1017 30.03 846 24.98 14.9 58.8 33 -1.1 30.1
14:55 1017 30.03 846 24.98 14.9 58.8 33 -1.2 29.8
15:00 1017 30.03 846 24.98 15 58.9 33 -1 30.3
15:05 1017 30.03 846 24.98 15 58.9 33 -0.9 30.4
15:10 1017 30.03 846 24.98 14.9 58.9 34 -0.8 30.5
15:15 1017 30.03 846 24.98 15 58.9 34 -0.9 30.5
15:20 1017 30.03 846 24.98 15 58.9 34 -0.9 30.4
15:25 1017 30.03 846 24.98 14.9 58.9 33 -1 30.2
15:30 1017 30.03 846 24.98 15 58.9 33 -1 30.2
15:35 1017 30.03 846 24.98 15 59 32 -1.3 29.7
15:40 1017 30.03 846 24.98 15.1 59.1 32 -1.2 29.8
15:45 1017 30.03 846 24.98 15.1 59.2 32 -1.5 29.3
15:50 1017 30.03 846 24.98 15.2 59.4 31 -1.6 29.1
15:55 1017 30.03 846 24.98 15.3 59.5 31 -1.6 29.1
16:00 1017 30.03 846 24.98 15.3 59.5 31 -1.5 29.4
16:05 1017 30.03 846 24.98 15.2 59.4 32 -1.4 29.4
16:10 1017 30.03 846 24.98 15.1 59.2 32 -1.3 29.7
16:15 1017 30.03 847 25.01 15 58.9 32 -1.4 29.4
16:20 1017 30.03 847 25.01 14.9 58.8 32 -1.4 29.4
16:25 1018 30.06 847 25.01 14.8 58.6 33 -1.2 29.8
16:30 1018 30.06 847 25.01 14.6 58.2 34 -1 30.1
16:35 1017 30.03 847 25.01 14.4 57.9 34 -1.1 30.1
16:40 1017 30.03 847 25.01 14.3 57.7 35 -1 30.1
16:45 1017 30.03 847 25.01 14.3 57.7 34 -1.4 29.5
16:50 1017 30.03 847 25.01 14.4 57.9 33 -1.5 29.3
16:55 1017 30.03 847 25.01 14.5 58 33 -1.6 29.1
17:00 1017 30.03 847 25.01 14.6 58.2 33 -1.4 29.4
17:05 1017 30.03 847 25.01 14.5 58.1 33 -1.5 29.3
17:10 1017 30.03 847 25.01 14.5 58 33 -1.3 29.6
17:15 1017 30.03 847 25.01 14.4 57.9 33 -1.5 29.3
17:20 1017 30.03 847 25.01 14.4 57.9 33 -1.5 29.3
17:25 1018 30.06 847 25.01 14.4 57.9 33 -1.5 29.4
17:30 1018 30.06 847 25.01 14.3 57.7 34 -1.3 29.7
17:35 1017 30.03 847 25.01 14.1 57.5 34 -1.4 29.5
17:40 1017 30.03 847 25.01 14 57.3 35 -1.2 29.8
17:45 1017 30.03 847 25.01 13.9 57 34 -1.5 29.4
17:50 1017 30.03 847 25.01 13.8 56.9 34 -1.6 29.1
17:55 1017 30.03 847 25.01 13.8 56.9 34 -1.9 28.6
18:00 1017 30.03 847 25.01 13.8 56.8 34 -1.9 28.6
18:05 1017 30.03 847 25.01 13.7 56.7 34 -1.9 28.6
18:10 1017 30.03 847 25.01 13.6 56.5 34 -1.8 28.7
18:15 1017 30.03 847 25.01 13.5 56.4 34 -2 28.4
18:20 1018 30.06 847 25.01 13.5 56.3 35 -1.7 29
18:25 1018 30.06 847 25.01 13.5 56.2 34 -2 28.4
18:30 1018 30.06 847 25.01 13.5 56.2 34 -2 28.4
18:35 1018 30.06 847 25.01 13.5 56.2 34 -2.1 28.3
18:40 1018 30.06 847 25.01 13.5 56.2 34 -2.1 28.2
18:45 1018 30.06 847 25.01 13.4 56.2 34 -2.1 28.3
18:50 1018 30.06 847 25.01 13.4 56.1 34 -2.1 28.2
18:55 1018 30.06 847 25.01 13.3 55.9 34 -2.2 28.1
19:00 1018 30.06 847 25.01 13.3 55.9 35 -1.9 28.5
19:05 1018 30.06 847 25.01 13.1 55.6 35 -2.1 28.3
19:10 1018 30.06 847 25.01 13 55.4 35 -1.9 28.5
19:15 1018 30.06 847 25.01 13 55.3 35 -2 28.5
19:20 1018 30.06 847 25.01 12.8 55.1 36 -1.8 28.8
19:25 1018 30.06 847 25.01 12.7 54.8 36 -1.8 28.8
19:30 1018 30.06 847 25.01 12.6 54.7 37 -1.7 29
19:35 1018 30.06 847 25.01 12.5 54.6 37 -1.7 28.9
19:40 1018 30.06 847 25.01 12.5 54.5 37 -1.7 29
19:45 1018 30.06 847 25.01 12.4 54.4 37 -1.7 29
19:50 1018 30.06 847 25.01 12.5 54.5 37 -1.8 28.8
19:55 1018 30.06 847 25.01 12.5 54.5 37 -1.6 29.2
20:00 1018 30.06 847 25.01 12.2 53.9 39 -1.5 29.3
20:05 1018 30.06 847 25.01 11.8 53.3 40 -1.4 29.5
20:10 1018 30.06 847 25.01 11.4 52.5 41 -1.3 29.7
20:15 1018 30.06 848 25.04 11 51.8 42 -1.4 29.4
20:20 1018 30.06 848 25.04 11 51.7 42 -1.5 29.4
20:25 1018 30.06 848 25.04 11 51.9 42 -1.5 29.3
20:30 1019 30.09 848 25.04 11.2 52.1 41 -1.4 29.4
20:35 1019 30.09 848 25.04 11.2 52.2 42 -1.3 29.7
20:40 1019 30.09 848 25.04 11.3 52.3 41 -1.5 29.3
20:45 1019 30.09 848 25.04 11.4 52.4 42 -1.2 29.8
20:50 1019 30.09 848 25.04 11.1 52 42 -1.3 29.6
20:55 1019 30.09 848 25.04 11 51.9 42 -1.3 29.6
21:00 1019 30.09 848 25.04 11.1 51.9 42 -1.4 29.5
21:05 1019 30.09 848 25.04 11.1 52 42 -1.3 29.7
21:10 1019 30.09 848 25.04 11.3 52.3 41 -1.3 29.7
21:15 1019 30.09 848 25.04 11.3 52.4 41 -1.3 29.6
21:20 1019 30.09 848 25.04 11.5 52.7 41 -1.4 29.6
21:25 1019 30.09 848 25.04 11.6 52.8 41 -1.3 29.7
21:30 1019 30.09 848 25.04 11.6 52.8 41 -1.2 29.8
21:35 1019 30.09 848 25.04 11.5 52.7 41 -1.4 29.5
21:40 1019 30.09 848 25.04 11.6 52.9 40 -1.4 29.6
21:45 1019 30.09 848 25.04 11.7 53 40 -1.2 29.8
21:50 1019 30.09 848 25.04 11.6 52.9 41 -1.2 29.8
21:55 1019 30.09 848 25.04 11.5 52.8 41 -1.2 29.9
22:00 1019 30.09 848 25.04 11.5 52.7 41 -1.2 29.8
22:05 1019 30.09 848 25.04 11.5 52.7 41 -1.3 29.7
22:10 1019 30.09 848 25.04 11.5 52.8 41 -1.2 29.8
22:15 1019 30.09 848 25.04 11.5 52.7 41 -1.2 29.8
22:20 1019 30.09 848 25.04 11.5 52.7 41 -1.2 29.9
22:25 1019 30.09 848 25.04 11.5 52.7 41 -1.2 29.9
22:30 1019 30.09 848 25.04 11.6 52.8 41 -1.1 30
22:35 1019 30.09 848 25.04 11.5 52.8 41 -1.2 29.9
22:40 1019 30.09 848 25.04 11.6 53 41 -1.1 30
22:45 1019 30.09 848 25.04 11.7 53 41 -1.1 30.1
22:50 1019 30.09 848 25.04 11.6 53 41 -1.2 29.9
22:55 1019 30.09 848 25.04 11.7 53.1 41 -1 30.2
23:00 1019 30.09 848 25.04 11.7 53.1 43 -0.5 31.2
23:05 1019 30.09 848 25.04 11.7 53.1 42 -0.7 30.7
23:10 1019 30.09 848 25.04 11.6 52.9 42 -0.8 30.6
23:15 1019 30.09 848 25.04 11.7 53 42 -0.8 30.5
23:20 1019 30.09 848 25.04 11.6 52.9 42 -0.7 30.7
23:25 1019 30.09 848 25.04 11.6 52.9 42 -0.9 30.4
23:30 1019 30.09 848 25.04 11.6 52.8 42 -0.8 30.6
23:35 1019 30.09 848 25.04 11.4 52.6 43 -0.7 30.7
23:40 1019 30.09 848 25.04 11.4 52.6 43 -0.8 30.6
23:45 1019 30.09 848 25.04 11.3 52.4 43 -0.8 30.5
23:50 1019 30.09 848 25.04 11.3 52.4 43 -0.7 30.8
23:55 1019 30.09 848 25.04 11.2 52.2 44 -0.7 30.8
24:00 1019 30.09 848 25.04 11.2 52.2 44 -0.5 31.1